CAPE
0 0 0 0 0 0 0 0 0 0 0 0 0 0 0 0 0 0 0 0 0 0 0 0 0 0 0 0 0 0 0 0 0 0 0 0 0 0 233 781 1135 1454 1630 1877 1977 2017 2165 2265 2222 2248 2418 2531 2564 2560 2526 2422 2367 2295 2168 1989 1914 1755 1648 1495 1410 1416 1324 1200 1184 1187 1283 1342 1322 1384 1431 1461 1451 1423 1396 1359 1268 1206 1236 1325 1496 1518
0 0 0 0 0 0 0 0 0 0 0 0 0 0 0 0 0 0 0 0 0 0 0 0 0 0 0 0 0 0 0 0 0 0 0 0 0 0 8 414 754 1078 1361 1570 1592 1694 1942 2193 2166 2019 2193 2394 2517 2639 2554 2395 2343 2273 2160 2019 1914 1797 1719 1599 1440 1444 1360 1176 1241 1227 1226 1259 1302 1354 1391 1417 1414 1448 1479 1526 1494 1398 1460 1497 1591 1513
0 0 0 0 0 0 0 0 0 0 0 0 0 0 0 0 0 0 0 0 0 0 0 0 0 0 0 0 0 0 0 0 0 0 0 0 0 0 0 32 332 562 912 1249 1397 1395 1544 1958 2048 1940 2034 2174 2368 2490 2483 2352 2242 2244 2221 2062 1915 1825 1722 1658 1504 1467 1412 1318 1312 1354 1341 1355 1334 1353 1411 1398 1388 1525 1629 1680 1702 1703 1696 1649 1606 1535
0 0 0 0 0 0 0 0 0 0 0 0 0 0 0 0 0 0 0 0 0 0 0 0 0 0 0 0 0 0 0 0 0 0 0 0 0 0 0 0 34 188 360 732 1114 1225 1320 1566 1824 1920 1957 2052 2159 2257 2292 2225 2252 2244 2204 2123 1944 1812 1713 1723 1571 1507 1468 1439 1391 1394 1454 1435 1326 1337 1413 1461 1499 1494 1607 1713 1779 1848 1839 1784 1644 1531
0 0 0 0 0 0 0 0 0 0 0 0 0 0 0 0 0 0 0 0 0 0 0 0 0 0 0 0 0 0 0 0 0 0 0 0 0 0 0 0 0 0 27 203 606 987 1172 1382 1750 1925 2001 2007 2062 2161 2215 2174 2187 2225 2177 2105 1994 1824 1746 1732 1704 1525 1522 1518 1470 1475 1521 1490 1349 1352 1374 1432 1485 1534 1590 1658 1768 1861 1874 1816 1718 1530
0 0 0 0 0 0 0 0 0 0 0 0 0 0 0 0 0 0 0 0 0 0 0 0 0 0 0 0 0 0 0 0 0 0 0 0 0 0 0 0 0 0 0 2 166 544 995 1363 1744 1923 2013 2006 2057 2114 2191 2181 2160 2166 2154 2121 2048 1901 1774 1760 1761 1631 1567 1566 1526 1538 1581 1586 1485 1344 1332 1380 1426 1448 1558 1685 1764 1830 1859 1803 1708 1478
0 0 0 0 0 0 0 0 0 0 0 0 0 0 0 0 0 0 0 0 0 0 0 0 0 0 0 0 0 0 0 0 0 0 0 0 0 0 0 0 0 0 0 0 0 49 556 1224 1713 1916 2002 2083 2141 2177 2214 2158 2134 2150 2166 2161 2038 1945 1831 1770 1796 1741 1584 1594 1594 1598 1628 1643 1570 1424 1359 1350 1394 1424 1486 1685 1811 1862 1814 1698 1509 1349
0 0 0 0 0 0 0 0 0 0 0 0 0 0 0 0 0 0 0 0 0 0 0 0 0 0 0 0 0 0 0 0 0 0 0 0 0 0 0 0 0 0 0 0 0 0 147 990 1627 1930 2070 2174 2270 2360 2266 2152 2138 2156 2210 2144 2043 1957 1861 1822 1838 1825 1672 1587 1612 1668 1730 1737 1688 1638 1570 1528 1483 1487 1611 1752 1884 1852 1720 1538 1483 1377
0 0 0 0 0 0 0 0 0 0 0 0 0 0 0 0 0 0 0 0 0 0 0 0 0 0 0 0 0 0 0 0 0 0 0 0 0 0 0 0 0 0 0 0 0 0 4 738 1502 1926 2086 2193 2300 2361 2272 2276 2258 2236 2189 2108 2028 1980 1916 1887 1872 1862 1770 1600 1627 1692 1801 1846 1829 1810 1768 1712 1680 1680 1760 1855 1840 1735 1630 1579 1506 1370
0 0 0 0 0 0 0 0 0 0 0 0 0 0 0 0 0 0 0 0 0 0 0 0 0 0 0 0 0 0 0 0 0 0 0 0 0 0 0 0 0 0 0 0 0 0 0 444 1331 1886 2127 2214 2265 2321 2289 2325 2274 2248 2206 2132 2076 2019 1970 1935 1895 1893 1846 1689 1676 1777 1867 1909 1915 1852 1819 1783 1772 1750 1785 1817 1771 1712 1632 1576 1492 1340
0 0 0 0 0 0 0 0 0 0 0 0 0 0 0 0 0 0 0 0 0 0 0 0 0 0 0 0 0 0 0 0 0 0 0 0 0 0 0 0 0 0 0 0 0 0 0 242 1149 1810 2103 2212 2313 2312 2285 2295 2269 2245 2211 2169 2106 2060 2033 1979 1935 1904 1887 1760 1736 1840 1902 1936 1879 1754 1780 1760 1762 1752 1772 1771 1721 1656 1606 1558 1523 1382
0 0 0 0 0 0 0 0 0 0 0 0 0 0 0 0 0 0 0 0 0 0 0 0 0 0 0 0 0 0 0 0 0 0 0 0 0 0 0 0 0 0 0 0 0 0 0 229 1040 1651 2044 2206 2232 2262 2276 2322 2287 2239 2253 2208 2138 2080 2069 2030 1959 1904 1888 1791 1774 1809 1854 1840 1787 1776 1731 1753 1747 1750 1730 1682 1635 1597 1569 1562 1522 1444
0 0 0 0 6 0 0 0 0 0 0 0 0 0 0 0 0 0 0 0 0 0 0 0 0 0 0 0 0 0 0 0 0 0 0 0 0 0 0 0 0 0 0 0 0 0 4 248 980 1651 2017 2229 2262 2314 2380 2405 2354 2293 2248 2191 2112 2090 2091 2079 1969 1922 1898 1836 1736 1751 1776 1771 1794 1848 1823 1724 1745 1713 1667 1616 1578 1566 1524 1479 1393 1294
0 0 0 0 0 0 0 0 0 0 0 0 0 0 0 0 0 0 0 0 0 0 0 0 0 0 0 0 0 0 0 0 0 0 0 0 0 0 0 0 0 0 0 0 0 0 116 362 901 1576 1981 2202 2310 2403 2459 2469 2416 2346 2277 2196 2104 2094 2115 2079 1989 1935 1907 1874 1773 1743 1781 1806 1857 1894 1886 1820 1749 1716 1641 1567 1535 1501 1434 1402 1344 1274
0 0 0 0 0 0 0 0 0 0 0 0 0 0 0 0 0 0 0 0 0 0 0 0 0 0 0 0 0 0 0 0 0 0 0 0 0 0 0 0 0 0 0 0 0 0 146 582 895 1355 1808 2101 2258 2373 2433 2421 2412 2353 2276 2187 2125 2101 2096 2071 2008 1932 1921 1902 1852 1830 1852 1886 1922 1929 1925 1833 1734 1728 1652 1595 1555 1536 1430 1324 1323 1253
0 0 0 0 0 0 0 0 0 0 0 0 0 0 0 0 0 0 0 0 0 0 0 0 0 0 0 0 0 0 0 0 0 0 0 0 0 0 0 0 0 0 0 0 0 0 53 642 1069 1300 1602 1932 2147 2262 2333 2337 2344 2308 2244 2188 2144 2108 2091 2064 2000 1974 1973 1962 1931 1912 1910 1940 1946 1974 1968 1843 1728 1716 1675 1642 1590 1510 1311 1291 1266 1228
0 0 0 0 0 0 0 0 0 0 0 0 0 0 0 0 0 0 0 0 0 0 0 0 0 0 0 0 0 0 0 0 0 0 0 0 0 0 0 0 0 0 0 0 0 0 2 408 1063 1395 1639 1883 2045 2151 2209 2295 2302 2264 2210 2165 2139 2123 2099 2067 2067 2038 2012 2022 1985 1975 1963 1967 1975 2009 1960 1764 1752 1702 1667 1609 1532 1363 1279 1255 1230 1213
0 0 0 0 0 0 0 0 0 0 0 0 0 0 0 0 0 0 0 0 0 0 0 0 0 0 0 0 0 0 0 0 0 0 0 0 0 0 0 0 0 0 0 0 0 0 0 191 846 1412 1709 1889 2029 2136 2228 2285 2258 2214 2166 2124 2145 2139 2128 2134 2138 2067 2054 2054 2039 2031 2013 1995 2003 2029 1945 1788 1768 1713 1660 1592 1424 1286 1256 1210 1200 1178
0 0 0 0 0 0 0 0 0 0 0 0 0 0 0 0 0 0 0 0 0 0 0 0 0 0 0 0 0 0 0 0 0 0 0 0 0 0 0 0 0 0 0 0 0 0 0 107 736 1275 1663 1929 2074 2156 2194 2215 2202 2170 2148 2134 2131 2120 2141 2176 2129 2092 2088 2089 2099 2072 2039 2016 2052 2036 1955 1811 1748 1698 1636 1513 1262 1261 1249 1238 1193 1157
0 0 0 0 0 0 0 0 0 0 0 0 0 0 0 0 0 0 0 0 0 0 0 0 0 0 0 0 0 0 0 0 0 0 0 0 0 0 0 0 0 0 0 0 0 0 15 299 840 1256 1600 1887 2036 2118 2162 2183 2157 2125 2124 2104 2114 2122 2123 2152 2166 2138 2127 2145 2149 2110 2047 2074 2074 2035 1921 1839 1765 1668 1571 1418 1241 1238 1252 1267 1238 1218
3 0 1 8 0 0 0 0 0 0 0 0 0 0 0 0 7 0 0 0 0 0 0 0 0 0 0 0 0 0 0 0 0 0 0 0 0 0 0 0 0 0 0 0 0 0 75 478 918 1245 1548 1818 1966 2039 2074 2080 2080 2088 2065 2058 2094 2132 2172 2217 2204 2168 2174 2198 2185 2127 2125 2131 2084 1995 1895 1770 1650 1562 1479 1276 1168 1253 1288 1266 1256 1252
2 0 6 0 0 0 0 0 0 0 0 0 0 0 0 0 0 0 0 0 0 0 0 0 0 0 0 0 0 0 0 0 0 0 0 0 0 0 0 0 0 0 0 0 0 1 154 636 993 1273 1532 1727 1857 1947 2004 2045 2050 2019 2036 2069 2106 2148 2223 2277 2249 2205 2196 2210 2184 2183 2184 2142 2010 1867 1728 1638 1610 1519 1397 1267 1250 1265 1265 1243 1233 1171
0 0 0 0 0 0 3 5 6 6 1 0 1 0 0 0 0 0 0 0 0 0 0 0 0 0 0 0 0 0 0 0 0 0 0 0 0 0 0 0 0 0 0 0 0 35 310 778 1090 1325 1548 1729 1845 1926 1985 2008 2005 2026 2052 2060 2124 2219 2314 2332 2272 2210 2208 2200 2204 2189 2176 2052 1807 1648 1619 1587 1531 1532 1425 1300 1211 1141 1213 1185 1140 1066
0 1 0 0 0 4 3 4 5 3 2 6 4 0 0 0 0 0 0 6 0 0 0 0 0 0 0 0 0 0 0 0 0 0 0 0 0 0 0 0 0 0 0 0 0 137 468 874 1186 1374 1569 1742 1841 1908 1990 2009 2008 2009 2031 2074 2134 2253 2356 2337 2262 2193 2178 2194 2184 2160 2086 1819 1513 1392 1498 1555 1579 1609 1498 1352 1208 1132 1108 1089 1077 964
1 0 0 1 1 0 1 1 1 0 0 0 0 2 1 0 0 0 41 63 44 33 0 0 0 0 0 0 0 0 0 0 0 0 0 0 0 0 0 0 0 0 0 0 46 454 835 1114 1321 1500 1657 1814 1894 1957 2012 2019 2005 2031 2056 2092 2135 2297 2377 2340 2246 2142 2106 2116 2119 2108 1938 1617 1400 1340 1456 1559 1618 1635 1531 1268 1170 1086 1089 1072 1051 840
0 0 3 0 1 0 9 3 3 6 6 2 3 2 0 0 0 0 0 0 6 70 45 49 7 0 0 0 0 0 0 0 0 0 0 0 0 0 0 0 0 0 0 0 133 748 1050 1282 1438 1561 1697 1836 1920 1979 2022 2020 2026 2038 2046 2075 2162 2315 2358 2266 2120 2008 2016 2048 2066 2031 1816 1527 1346 1348 1386 1482 1528 1453 1236 1140 1146 1057 1074 987 883 726
0 1 0 1 1 4 3 2 10 1 0 5 1 0 0 0 0 0 0 27 0 8 27 8 0 0 0 0 0 0 0 0 0 0 0 0 0 0 0 0 0 0 0 18 380 860 1162 1340 1485 1607 1752 1889 1972 2022 2023 2028 2017 2011 2022 2046 2166 2295 2238 2114 1946 1943 1951 1994 2026 2025 1802 1569 1135 1205 1292 1302 1304 1238 1227 1141 1087 1062 1016 871 784 702
0 0 1 4 0 4 0 1 1 4 6 1 0 0 0 0 0 0 7 0 3 12 0 0 0 0 0 0 8 109 233 179 136 0 0 0 0 0 0 0 0 0 0 109 545 901 1167 1390 1535 1658 1800 1916 2013 2054 2055 2029 1990 1983 1979 1999 2123 2199 2129 1932 1875 1902 1928 1986 2044 2038 1823 1606 1050 1190 1293 1346 1339 1259 1140 1052 1012 973 819 774 710 652
0 2 13 22 11 0 0 2 6 7 1 0 2 0 0 0 0 0 0 0 9 0 0 0 0 0 0 69 267 357 348 252 277 260 216 152 19 0 0 0 0 0 21 417 726 1012 1238 1398 1562 1703 1839 1968 2056 2098 2093 2046 1965 1922 1915 1920 2038 2063 1926 1856 1837 1859 1921 1983 2045 2027 1754 1521 1237 1257 1307 1368 1352 1346 1422 1368 1122 814 706 715 677 612
20 0 19 4 0 0 0 0 2 0 0 0 0 0 3 0 0 0 0 0 17 11 5 11 0 1 110 140 296 166 382 405 392 446 320 98 0 0 0 0 0 0 129 648 935 1162 1324 1479 1614 1761 1886 1995 2097 2136 2104 2050 1986 1913 1879 1890 1891 1832 1848 1849 1828 1830 1912 1990 2031 1978 1703 1515 1181 1135 1272 1397 1431 1409 1386 1169 843 720 765 772 647 577
4 0 2 0 0 0 0 0 0 1 3 13 4 5 3 16 19 15 8 10 10 7 10 6 2 43 110 198 178 351 404 699 547 461 302 131 0 0 0 0 0 0 187 732 1056 1260 1408 1532 1672 1804 1926 2036 2124 2153 2119 2072 1994 1917 1874 1855 1826 1827 1841 1829 1824 1871 1944 2004 2001 1909 1712 1563 1194 1173 1325 1419 1437 1236 1152 1051 730 718 832 832 678 621
4 6 5 8 25 6 0 0 0 0 0 6 12 9 5 10 16 7 16 23 12 28 10 15 2 8 54 108 209 332 563 748 643 353 128 0 0 0 0 0 0 0 277 830 1140 1340 1458 1591 1748 1894 1995 2079 2147 2171 2117 2046 1990 1926 1899 1843 1820 1837 1851 1860 1881 1888 1939 2004 2026 1905 1738 1571 1095 1090 1246 1272 1171 1169 1173 1028 676 748 833 705 566 590
0 5 4 16 34 5 0 1 0 1 2 1 2 6 10 0 1 1 5 13 5 2 16 17 5 74 55 56 81 281 637 825 616 334 209 0 0 0 0 0 1 53 553 1005 1271 1433 1549 1686 1843 1947 2034 2096 2138 2153 2095 2030 1968 1932 1880 1852 1848 1845 1855 1866 1882 1899 1936 1973 1957 1877 1808 1623 1101 1168 1156 1042 1100 1065 1024 595 649 755 829 626 503 548
2 2 5 4 42 17 0 0 0 0 0 4 1 12 13 16 5 3 12 20 3 0 12 32 25 80 97 132 231 315 622 859 859 617 563 353 234 0 0 101 155 464 875 1181 1372 1502 1628 1740 1850 1952 2030 2084 2118 2109 2083 2028 1962 1892 1850 1830 1862 1862 1848 1845 1886 1935 1953 1933 2044 1981 1809 1294 1104 1180 1118 1070 1121 1097 731 730 968 996 813 555 515 535
2 0 1 0 1 0 0 1 0 0 5 19 0 7 5 5 3 1 7 0 0 6 16 6 48 100 83 152 275 409 790 881 909 808 767 717 442 316 224 461 577 861 1136 1339 1468 1565 1642 1751 1882 1966 2000 1986 1985 1980 1956 1917 1854 1771 1721 1804 1896 1901 1881 1855 1830 1953 1960 1901 1947 1920 1610 1103 1116 1192 1166 1164 1170 1041 695 789 1019 1117 742 520 553 631
1 2 4 0 0 2 3 1 1 0 0 192 165 8 0 1 4 13 25 6 7 2 15 74 37 86 119 122 284 260 698 949 982 1009 919 912 765 663 443 687 844 1038 1262 1424 1541 1612 1687 1792 1899 1960 1950 1934 1961 1947 1960 1930 1858 1798 1738 1821 1904 1931 1943 1891 1871 1885 1917 1935 1919 1811 1400 1104 1219 1312 1297 1246 1223 910 716 773 874 844 635 509 607 694
1 4 0 7 1 2 0 2 0 12 62 148 163 189 222 357 258 196 2 0 20 327 78 38 93 139 219 208 304 454 652 938 832 1215 1228 1209 1140 1008 740 808 1028 1149 1313 1466 1579 1642 1735 1816 1867 1902 1898 1932 1982 1960 1944 1934 1891 1836 1799 1857 1918 1931 1916 1832 1792 1802 1935 2019 1840 1544 999 1005 1223 1217 1087 1057 1063 1138 1076 908 875 794 768 676 647 719
2 3 4 6 5 4 0 0 0 8 20 14 44 195 268 88 337 159 106 0 0 14 118 146 60 178 325 357 350 464 514 641 783 928 1220 1485 1392 1327 1131 1111 1211 1301 1368 1515 1595 1669 1725 1792 1846 1858 1912 1952 1984 1972 1959 1947 1922 1855 1837 1888 1908 1926 1906 1891 1934 1918 1788 1592 1539 1214 721 857 990 941 915 943 974 1064 1217 1021 759 677 850 964 884 823
7 3 5 1 5 0 4 0 5 16 28 62 21 168 210 215 247 34 5 3 0 113 393 439 18 167 264 673 587 677 839 538 713 1138 1098 1322 1602 1622 1487 1381 1433 1499 1516 1601 1706 1738 1773 1827 1892 1884 1871 1949 1995 2010 2011 1993 1917 1855 1834 1864 1896 1906 1897 1791 1672 1594 1629 1686 1476 1116 1200 1248 1167 955 894 966 998 1105 1153 827 716 872 1017 933 824 732
19 15 16 8 0 2 1 9 3 1 30 30 20 43 172 9 29 0 2 3 58 493 543 470 97 429 616 729 856 778 835 733 565 803 1106 1319 1527 1741 1687 1711 1573 1610 1679 1659 1714 1748 1770 1824 1858 1874 1900 1972 2009 1985 2001 1956 1865 1782 1762 1749 1757 1744 1708 1655 1681 1726 1744 1459 1228 1341 1214 1083 1049 1116 1187 1244 1222 1178 1139 1019 956 1016 992 748 564 368
21 21 12 5 12 11 2 1 5 6 38 160 137 238 90 3 0 6 7 0 12 385 560 411 608 708 799 882 965 852 716 765 826 793 932 1125 1501 1654 1743 1787 1764 1703 1766 1764 1749 1754 1786 1822 1869 1862 1848 1912 1916 1868 1870 1850 1780 1727 1702 1725 1761 1813 1757 1694 1675 1647 1470 1470 1394 1169 960 998 983 1077 1241 1381 1285 1314 1149 916 1009 950 782 674 483 211
17 8 4 6 2 0 6 0 3 22 30 201 249 17 23 0 2 1 21 199 327 361 413 478 594 982 945 937 1135 1092 982 948 844 754 816 1055 1378 1574 1656 1761 1795 1818 1835 1852 1826 1747 1720 1776 1739 1770 1727 1799 1818 1802 1797 1786 1746 1672 1653 1700 1715 1613 1534 1512 1566 1591 1476 1026 821 836 1012 1099 1160 1098 1019 1158 1240 1180 1027 1083 1006 848 816 500 176 136
4 6 7 4 1 0 1 2 0 48 24 37 84 67 44 0 4 67 11 393 156 23 340 524 587 846 769 1075 1103 1175 1028 979 975 926 890 791 1022 1438 1487 1553 1789 1868 1925 1898 1929 1888 1816 1775 1684 1661 1684 1753 1804 1813 1812 1755 1712 1652 1609 1686 1664 1539 1536 1598 1702 1524 941 624 702 1190 1258 1238 962 743 834 1103 1099 951 890 791 755 615 459 209 193 179
0 0 1 6 3 1 0 2 16 64 75 46 60 241 91 199 151 151 39 236 402 342 27 6 383 840 1052 1059 1026 1038 999 975 951 928 973 931 762 726 899 1350 1670 1827 1929 1920 1968 1933 1922 1861 1838 1801 1717 1727 1799 1816 1806 1742 1700 1648 1697 1729 1713 1478 1520 1540 1416 1223 812 821 1070 1300 973 759 1067 1195 1071 1100 942 848 875 792 620 482 413 250 210 213
2 2 8 4 5 7 1 7 4 32 87 94 93 18 235 208 348 405 316 394 327 381 354 287 338 771 1092 1115 874 940 839 913 914 800 816 875 923 867 804 955 1255 1710 1832 1895 1939 1902 1842 1832 1799 1757 1664 1700 1769 1793 1780 1690 1608 1663 1711 1717 1330 1164 1198 1280 1223 1191 1087 1072 1082 1165 1090 1251 1336 1209 1244 1010 836 763 766 662 548 532 432 287 292 347
1 15 23 2 4 1 1 9 2 17 30 18 13 148 102 169 338 135 285 346 510 486 496 358 420 472 545 670 806 817 846 734 774 716 761 785 812 886 885 843 996 1240 1675 1843 1926 1928 1872 1849 1783 1768 1728 1709 1681 1651 1629 1761 1802 1760 1810 1306 909 1066 1282 1417 1124 778 720 898 907 828 806 1398 1203 1183 1128 954 823 718 591 629 545 454 366 337 313 359
3 22 12 2 4 0 23 21 10 56 74 118 40 124 152 130 438 550 440 526 416 536 496 478 451 394 359 372 426 606 614 576 609 687 676 754 812 882 881 866 963 1038 1142 1544 1710 1792 1796 1830 1837 1712 1691 1743 1748 1815 1780 1702 1419 1553 1450 988 1059 1150 1030 694 650 832 951 918 1082 943 1124 1231 1333 1150 977 872 854 844 708 529 391 405 389 467 414 384
0 9 11 1 1 4 2 8 36 36 10 1 54 54 146 128 254 446 574 448 499 479 454 476 599 472 410 472 540 594 560 512 574 591 667 628 718 802 836 861 926 939 1073 1152 1245 1544 1592 1614 1746 1697 1535 1605 1612 1708 1650 1563 1570 1426 1287 945 824 716 710 743 789 807 777 820 1058 938 1170 1253 1260 1026 821 782 678 606 544 488 491 474 487 522 455 445
14 15 1 1 0 2 2 5 10 0 11 0 3 130 173 56 232 309 576 665 492 453 395 616 768 644 651 628 648 584 469 502 471 513 583 510 535 702 838 898 864 888 966 1092 1139 1216 1238 1172 1346 1471 1422 1434 1510 1568 1740 1727 1474 1321 1101 650 814 920 832 796 741 724 714 856 522 879 1206 1166 955 859 816 904 843 737 640 558 612 639 609 508 479 408
4 4 14 9 12 2 17 4 4 42 44 7 3 25 34 70 124 468 591 628 713 640 526 619 737 723 659 614 524 505 481 396 392 421 352 434 505 548 646 751 836 855 883 887 978 915 854 941 1066 1179 1170 1299 1392 1410 1293 1378 1288 1132 843 794 622 650 734 762 847 864 944 814 869 1028 862 787 870 784 725 808 1024 856 797 685 643 611 546 500 378 318
12 11 10 20 2 11 18 26 14 25 27 76 59 17 32 7 25 58 355 504 554 559 570 526 588 630 580 500 435 442 415 406 358 305 324 356 348 379 381 474 597 741 837 827 864 822 792 851 971 1004 684 530 643 988 1128 1047 958 953 856 762 478 446 509 890 930 1036 1095 736 981 737 821 755 661 726 708 733 746 695 691 654 518 447 390 287 228 165
Wind_Speed
nan nan nan nan nan nan nan nan nan nan nan nan nan nan nan nan nan nan nan nan nan nan nan nan nan nan nan nan nan nan nan nan nan nan nan nan nan nan 49 47 42 38 32 30 28 30 27 25 30 33 34 32 31 29 25 23 21 19 18 17 15 18 21 25 27 30 34 34 32 29 28 27 29 29 29 32 34 34 34 34 35 35 34 33 31 29
nan nan nan nan nan nan nan nan nan nan nan nan nan nan nan nan nan nan nan nan nan nan nan nan nan nan nan nan nan nan nan nan nan nan nan nan nan nan nan 46 44 39 38 37 39 40 37 36 35 35 35 33 30 26 24 20 20 21 20 16 19 24 25 24 29 34 33 32 30 29 28 29 29 29 30 32 33 33 34 34 34 33 32 31 30 28
nan nan nan nan nan nan nan nan nan nan nan nan nan nan nan nan nan nan nan nan nan nan nan nan nan nan nan nan nan nan nan nan nan nan nan nan nan nan nan nan 46 45 41 41 39 41 37 35 36 36 35 32 28 29 26 27 27 23 20 19 24 27 26 26 33 36 34 32 30 29 29 29 29 28 31 31 32 33 33 33 32 31 29 29 28 25
nan nan nan nan nan nan nan nan nan nan nan nan nan nan nan nan nan nan nan nan nan nan nan nan nan nan nan nan nan nan nan nan nan nan nan nan nan nan nan nan nan 45 41 40 40 39 39 38 38 37 36 33 35 35 33 31 27 26 25 25 28 29 28 32 37 37 35 32 28 28 29 27 29 30 31 30 31 31 32 30 29 27 27 27 25 23
nan nan nan nan nan nan nan nan nan nan nan nan nan nan nan nan nan nan nan nan nan nan nan nan nan nan nan nan nan nan nan nan nan nan nan nan nan nan nan nan nan nan nan 42 42 43 45 43 40 36 34 37 36 35 32 30 28 27 25 27 30 31 33 37 37 37 37 32 28 27 27 29 30 30 30 30 29 30 28 27 26 23 25 25 23 21
nan nan nan nan nan nan nan nan nan nan nan nan nan nan nan nan nan nan nan nan nan nan nan nan nan nan nan nan nan nan nan nan nan nan nan nan nan nan nan nan nan nan nan nan 43 41 43 42 40 37 38 41 39 36 33 31 29 29 28 30 33 35 38 37 36 37 35 29 27 28 28 29 27 25 27 27 27 26 25 23 22 22 24 23 22 21
nan nan nan nan nan nan nan nan nan nan nan nan nan nan nan nan nan nan nan nan nan nan nan nan nan nan nan nan nan nan nan nan nan nan nan nan nan nan nan nan nan nan nan nan nan nan 51 48 44 40 40 41 39 33 36 38 36 33 33 36 38 39 39 37 35 36 33 27 26 27 27 27 24 22 24 25 25 25 22 23 22 21 23 22 21 20
nan nan nan nan nan nan nan nan nan nan nan nan nan nan nan nan nan nan nan nan nan nan nan nan nan nan nan nan nan nan nan nan nan nan nan nan nan nan nan nan nan nan nan nan nan nan 50 48 45 41 40 41 36 34 41 42 40 39 38 40 41 39 39 37 36 35 30 27 28 27 25 24 22 21 23 23 23 23 24 22 20 22 21 20 20 21
nan nan nan nan nan nan nan nan nan nan nan nan nan nan nan nan nan nan nan nan nan nan nan nan nan nan nan nan nan nan nan nan nan nan nan nan nan nan nan nan nan nan nan nan nan nan nan 49 47 44 42 39 36 40 44 43 41 41 42 43 42 41 41 39 38 35 29 27 29 27 24 22 21 21 22 23 23 24 23 22 21 21 20 20 20 21
nan nan nan nan nan nan nan nan nan nan nan nan nan nan nan nan nan nan nan nan nan nan nan nan nan nan nan nan nan nan nan nan nan nan nan nan nan nan nan nan nan nan nan nan nan nan nan 51 49 45 43 42 40 44 46 47 49 47 45 44 43 42 42 40 37 34 30 28 29 26 23 23 22 23 23 23 23 23 22 22 21 21 20 20 21 22
nan nan nan nan nan nan nan nan nan nan nan nan nan nan nan nan nan nan nan nan nan nan nan nan nan nan nan nan nan nan nan nan nan nan nan nan nan nan nan nan nan nan nan nan nan nan nan 55 52 51 49 45 50 53 53 53 51 49 47 45 43 44 45 40 35 34 30 29 29 25 24 23 22 22 24 24 23 22 22 21 21 20 20 21 22 22
nan nan nan nan nan nan nan nan nan nan nan nan nan nan nan nan nan nan nan nan nan nan nan nan nan nan nan nan nan nan nan nan nan nan nan nan nan nan nan nan nan nan nan nan nan nan nan 62 59 59 55 59 58 57 55 53 51 49 47 44 44 46 44 36 33 33 32 30 28 25 23 22 22 23 23 23 23 20 21 21 21 21 22 22 21 21
nan nan nan nan nan nan nan nan nan nan nan nan nan nan nan nan nan nan nan nan nan nan nan nan nan nan nan nan nan nan nan nan nan nan nan nan nan nan nan nan nan nan nan nan nan nan nan 60 59 58 57 60 59 57 55 52 50 49 47 44 45 43 39 33 32 33 33 30 27 24 23 22 22 22 23 23 22 20 20 21 22 22 21 22 22 21
nan nan nan nan nan nan nan nan nan nan nan nan nan nan nan nan nan nan nan nan nan nan nan nan nan nan nan nan nan nan nan nan nan nan nan nan nan nan nan nan nan nan nan nan nan nan 60 59 58 56 55 56 57 57 54 53 51 50 47 45 44 38 34 33 33 34 34 29 26 24 23 24 23 22 24 23 22 19 19 20 22 22 22 22 21 23
nan nan nan nan nan nan nan nan nan nan nan nan nan nan nan nan nan nan nan nan nan nan nan nan nan nan nan nan nan nan nan nan nan nan nan nan nan nan nan nan nan nan nan nan nan nan 58 58 56 56 55 56 56 56 55 54 52 51 48 45 39 35 33 32 33 36 33 30 27 25 24 25 24 23 25 24 22 20 20 21 23 21 21 21 21 23
nan nan nan nan nan nan nan nan nan nan nan nan nan nan nan nan nan nan nan nan nan nan nan nan nan nan nan nan nan nan nan nan nan nan nan nan nan nan nan nan nan nan nan nan nan nan nan 54 54 54 54 55 56 56 56 53 50 46 42 39 35 32 31 32 35 35 33 31 29 26 26 25 25 25 27 27 23 20 20 23 23 22 21 21 23 24
nan nan nan nan nan nan nan nan nan nan nan nan nan nan nan nan nan nan nan nan nan nan nan nan nan nan nan nan nan nan nan nan nan nan nan nan nan nan nan nan nan nan nan nan nan nan nan 50 50 50 49 50 52 53 51 47 42 37 37 36 34 32 33 34 34 34 34 32 28 26 27 27 25 26 27 27 24 21 21 23 22 22 22 23 24 25
nan nan nan nan nan nan nan nan nan nan nan nan nan nan nan nan nan nan nan nan nan nan nan nan nan nan nan nan nan nan nan nan nan nan nan nan nan nan nan nan nan nan nan nan nan nan nan 44 44 45 46 45 46 46 43 39 36 35 35 34 32 32 31 31 33 35 35 31 28 28 27 26 26 26 29 29 25 22 23 23 23 24 24 24 25 26
nan nan nan nan nan nan nan nan nan nan nan nan nan nan nan nan nan nan nan nan nan nan nan nan nan nan nan nan nan nan nan nan nan nan nan nan nan nan nan nan nan nan nan nan nan nan nan 45 42 42 42 41 41 40 38 35 34 35 34 33 31 30 29 32 36 38 36 31 28 28 27 27 27 28 30 29 25 23 24 24 23 23 24 26 27 28
nan nan nan nan nan nan nan nan nan nan nan nan nan nan nan nan nan nan nan nan nan nan nan nan nan nan nan nan nan nan nan nan nan nan nan nan nan nan nan nan nan nan nan nan nan nan nan 39 37 37 38 38 36 35 35 35 35 33 33 33 33 35 38 38 38 37 33 29 29 29 29 27 28 30 31 28 25 23 23 24 23 24 26 26 27 29
nan nan nan nan nan nan nan nan nan nan nan nan nan nan nan nan nan nan nan nan nan nan nan nan nan nan nan nan nan nan nan nan nan nan nan nan nan nan nan nan nan nan nan nan nan nan nan 34 34 35 34 32 32 33 35 35 31 30 33 34 34 34 34 35 36 36 33 30 29 29 27 28 30 31 30 28 24 24 24 24 24 25 26 27 28 29
nan nan nan nan nan nan nan nan nan nan nan nan nan nan nan nan nan nan nan nan nan nan nan nan nan nan nan nan nan nan nan nan nan nan nan nan nan nan nan nan nan nan nan nan nan nan 33 34 34 33 33 34 35 35 33 32 33 35 35 35 35 36 35 36 37 34 31 29 29 29 29 30 32 31 29 27 24 24 24 24 25 26 27 28 28 29
nan nan nan nan nan nan nan nan nan nan nan nan nan nan nan nan nan nan nan nan nan nan nan nan nan nan nan nan nan nan nan nan nan nan nan nan nan nan nan nan nan nan nan nan nan nan 31 32 33 33 32 30 29 29 30 31 32 33 34 36 36 35 34 36 35 33 31 29 30 30 30 31 31 29 27 26 24 24 24 25 26 25 27 28 28 28
nan nan nan nan nan nan nan nan nan nan nan nan nan nan nan nan nan nan nan nan nan nan nan nan nan nan nan nan nan nan nan nan nan nan nan nan nan nan nan nan nan nan nan nan nan 31 31 33 36 38 34 30 30 30 30 30 32 35 37 37 37 35 36 37 35 31 30 31 31 31 30 30 29 27 26 25 24 24 25 26 25 25 28 29 28 29
nan nan nan nan nan nan nan nan nan nan nan nan nan nan nan nan nan nan nan nan nan nan nan nan nan nan nan nan nan nan nan nan nan nan nan nan nan nan nan nan nan nan nan nan nan 31 34 37 35 33 30 28 28 30 31 32 34 36 36 38 36 36 36 35 33 31 31 32 31 29 29 28 26 25 24 25 24 25 26 25 25 25 28 29 28 28
nan nan nan nan nan nan nan nan nan nan nan nan nan nan nan nan nan nan nan nan nan nan nan nan nan nan nan nan nan nan nan nan nan nan nan nan nan nan nan nan nan nan nan nan 29 31 30 30 31 31 30 30 30 30 32 33 34 36 37 36 36 36 35 33 31 32 33 31 29 28 27 26 25 24 24 24 25 26 26 25 24 26 27 28 29 28
nan nan nan nan nan nan nan nan nan nan nan nan nan nan nan nan nan nan nan nan nan nan nan nan nan nan nan nan nan nan nan nan nan nan nan nan nan nan nan nan nan nan nan nan 26 26 29 32 30 29 29 29 30 31 33 33 35 37 38 37 36 35 34 32 32 33 31 29 28 27 24 24 24 24 23 24 25 26 25 24 25 27 27 26 28 28
nan nan nan nan nan nan nan nan nan nan nan nan nan nan nan nan nan nan nan nan nan nan nan nan nan nan nan nan nan 41 47 47 44 nan nan nan nan nan nan nan nan nan nan 28 27 27 28 27 29 30 29 30 30 31 34 35 36 37 36 35 34 34 32 31 31 30 29 27 27 25 23 24 25 24 24 25 26 25 24 24 25 27 27 26 27 26
nan nan nan nan nan nan nan nan nan nan nan nan nan nan nan nan nan nan nan nan nan nan nan nan nan nan nan nan 44 49 50 47 45 44 42 38 nan nan nan nan nan nan nan 27 27 28 28 29 29 28 28 28 30 32 33 36 37 38 37 36 34 32 29 29 29 29 27 26 25 24 24 25 26 25 25 26 26 25 23 24 26 28 26 25 25 24
nan nan nan nan nan nan nan nan nan nan nan nan nan nan nan nan nan nan nan nan nan nan nan nan nan nan 46 49 53 55 53 48 47 46 46 nan nan nan nan nan nan nan 25 26 27 28 28 27 27 26 26 28 29 31 33 34 34 33 32 31 29 27 27 28 27 27 26 25 24 25 24 26 27 26 25 25 25 23 23 24 27 28 26 25 25 25
nan nan nan nan nan nan nan nan nan nan nan nan nan nan nan nan nan nan nan nan nan nan nan nan nan nan 49 50 53 54 50 47 47 48 44 39 nan nan nan nan nan nan 23 26 29 30 30 29 27 28 27 26 28 30 31 31 31 30 29 28 26 24 24 26 26 25 25 24 24 25 26 27 27 25 24 24 24 22 23 25 27 26 25 25 25 25
nan nan nan nan nan nan nan nan nan nan nan nan nan nan nan nan nan nan nan nan nan nan nan nan nan nan nan 53 48 48 49 47 49 50 45 nan nan nan nan nan nan nan 27 31 33 33 31 29 27 26 25 26 28 30 31 32 31 29 27 25 23 24 25 25 25 24 24 24 25 26 26 27 27 24 23 24 23 22 23 26 27 26 25 25 25 24
nan nan nan nan nan nan nan nan nan nan nan nan nan nan nan nan nan nan nan nan nan nan nan nan nan nan nan nan nan 53 52 49 49 46 43 nan nan nan nan nan nan nan 26 30 30 28 26 24 23 23 25 27 29 30 30 30 29 25 24 23 23 25 24 24 23 24 24 24 25 26 27 27 26 23 23 22 23 23 24 26 26 26 25 25 24 25
nan nan nan nan nan nan nan nan nan nan nan nan nan nan nan nan nan nan nan nan nan nan nan nan nan nan nan 45 45 50 50 47 45 42 37 33 32 nan nan 24 22 24 26 26 24 22 22 25 26 26 26 27 28 29 31 29 26 25 25 25 25 24 23 24 23 23 24 25 26 27 27 27 24 22 22 23 23 23 25 26 25 25 25 25 25 25
nan nan nan nan nan nan nan nan nan nan nan nan nan nan nan nan nan nan nan nan nan nan nan nan nan 47 nan 46 45 44 44 45 42 40 40 32 26 25 24 24 21 19 22 24 26 27 27 26 28 31 33 34 36 37 36 34 33 33 31 28 25 24 23 24 24 24 25 26 27 27 27 26 23 23 23 24 23 23 25 26 25 25 25 25 25 25
nan nan nan nan nan nan nan nan nan nan nan 12 12 nan nan nan nan nan nan nan nan nan nan nan nan nan 48 49 45 39 39 44 41 35 34 35 30 28 26 24 22 19 18 19 20 24 26 28 28 28 30 35 37 36 33 31 31 30 28 26 24 23 23 24 25 25 27 27 27 27 27 26 24 24 24 24 23 23 24 25 26 25 24 25 25 24
nan nan nan nan nan nan nan nan nan nan nan 18 17 19 22 17 15 14 nan nan nan 21 nan nan nan 31 34 40 45 45 42 42 41 44 39 40 43 36 30 29 28 29 27 25 23 23 25 27 29 32 36 36 35 34 32 32 31 30 28 26 24 23 24 25 26 25 26 27 27 28 27 25 25 24 23 23 23 23 25 26 25 25 26 27 26 26
nan nan nan nan nan nan nan nan nan nan nan nan nan 19 18 nan 15 18 18 nan nan nan 16 26 nan 34 33 38 45 47 43 46 47 44 46 49 45 44 35 33 32 31 30 30 34 37 40 42 42 39 37 36 35 34 33 32 31 29 27 25 23 23 24 25 26 26 26 27 27 29 27 26 26 25 23 22 22 23 24 25 25 25 25 28 28 26
nan nan nan nan nan nan nan nan nan nan nan nan nan 18 20 16 15 nan nan nan nan 9 18 24 nan 36 37 38 42 43 45 43 41 41 45 51 47 44 41 35 32 32 31 33 34 35 36 39 39 40 41 39 37 36 34 32 31 29 26 24 23 24 25 25 26 26 27 28 29 29 28 28 27 24 22 22 23 25 25 24 24 26 27 27 27 27
nan nan nan nan nan nan nan nan nan nan nan nan nan nan 14 nan nan nan nan nan nan 24 23 24 nan 34 42 45 43 40 38 39 40 44 48 48 41 39 38 34 29 29 33 35 38 37 37 39 42 42 41 37 36 36 35 33 32 29 26 25 25 25 25 25 26 28 31 32 31 30 30 29 27 24 23 24 26 26 25 24 26 27 27 27 27 28
nan nan nan nan nan nan nan nan nan nan nan 7 14 17 nan nan nan nan nan nan nan 28 27 24 26 29 37 45 44 42 39 35 37 39 41 42 45 43 37 30 28 26 28 33 37 39 38 38 40 41 39 38 37 36 35 33 31 28 26 26 25 25 27 30 31 31 32 33 32 31 31 30 28 26 24 25 27 27 26 23 26 29 29 30 30 30
nan nan nan nan nan nan nan nan nan nan nan 10 21 nan nan nan nan nan nan 19 23 26 25 21 21 29 35 40 34 29 32 35 34 37 43 43 39 36 33 31 28 28 28 28 33 40 43 45 47 47 45 42 38 36 34 32 29 27 27 26 27 30 33 33 32 33 34 34 34 33 32 31 28 26 25 26 28 27 26 25 28 29 30 30 31 32
nan nan nan nan nan nan nan nan nan nan nan nan nan nan nan nan nan nan nan 22 20 nan 24 22 19 27 36 35 29 24 29 36 40 43 42 39 38 37 34 31 28 24 22 25 28 32 38 41 44 45 43 41 38 36 34 32 31 29 29 29 32 35 36 35 35 35 36 35 35 33 32 31 28 26 25 25 24 26 27 28 30 29 30 32 32 32
nan nan nan nan nan nan nan nan nan nan nan nan nan 2 nan 16 21 12 nan 22 22 20 nan nan 22 25 30 31 29 29 38 42 38 37 38 37 35 34 33 30 27 26 25 24 24 26 31 33 34 36 35 34 34 34 32 31 31 30 29 31 34 36 36 35 35 36 37 36 35 34 32 29 26 25 26 25 25 26 29 30 30 29 29 31 32 33
nan nan nan nan nan nan nan nan nan nan nan nan nan nan 8 18 21 14 9 16 16 11 14 24 27 24 23 27 28 32 35 38 36 35 35 34 34 33 31 28 26 24 24 25 25 26 30 33 35 37 38 36 32 30 28 26 28 28 27 29 34 35 34 34 35 36 37 36 34 33 32 29 27 27 26 25 25 27 28 30 30 30 30 31 32 34
nan nan nan nan nan nan nan nan nan nan nan nan nan 5 7 11 12 7 9 12 7 9 15 25 29 26 23 22 24 30 31 32 32 32 31 31 31 31 29 30 30 30 30 31 30 30 31 33 36 34 32 33 34 34 32 32 29 28 28 31 34 35 36 36 37 38 38 37 35 33 31 29 29 28 27 27 24 25 27 28 28 29 30 31 31 32
nan nan nan nan nan nan nan nan nan nan nan 6 nan 7 7 8 7 5 6 5 7 11 17 25 29 27 23 22 22 23 24 25 28 30 30 31 31 30 30 31 31 32 32 34 35 36 35 34 35 33 30 29 29 29 28 28 31 34 35 35 39 40 40 39 39 40 39 37 35 33 31 30 29 29 28 27 27 27 28 28 28 29 29 29 29 29
nan nan nan nan nan nan nan nan nan nan nan nan nan nan 9 8 7 6 4 3 2 5 9 16 22 23 20 19 18 18 19 22 24 25 26 26 26 26 27 28 29 31 34 35 34 34 34 31 30 32 31 28 26 28 30 32 36 37 38 39 39 39 39 39 38 38 37 35 34 34 30 29 29 28 26 26 27 27 28 28 26 26 26 26 27 29
nan nan nan nan nan nan nan nan nan nan nan nan nan 10 8 nan 7 6 7 6 9 7 3 7 12 17 19 19 20 17 17 20 20 21 21 21 21 21 22 25 27 28 29 32 35 34 30 28 29 30 31 31 29 31 34 37 38 38 38 39 39 38 38 38 38 40 40 39 37 34 30 28 27 27 27 29 31 31 28 25 22 23 23 24 26 29
nan nan nan nan nan nan nan nan nan nan nan nan nan nan nan nan 9 11 13 13 12 14 12 9 10 12 14 16 15 17 17 20 22 21 22 20 19 19 19 21 23 25 26 29 31 31 29 27 29 33 33 32 33 35 38 39 40 39 40 41 40 38 38 39 39 40 40 38 34 31 29 28 27 27 28 29 29 30 30 30 30 24 24 26 32 36
nan nan nan nan nan nan nan nan nan nan nan nan nan nan nan nan nan nan 19 17 14 14 16 17 16 16 17 17 16 15 17 22 26 25 24 22 20 18 17 18 18 21 24 26 27 28 27 26 26 30 33 33 34 38 40 41 42 41 40 41 40 38 37 39 41 41 40 38 33 29 28 28 26 26 27 28 28 27 27 26 28 33 32 33 34 37
Wind_Direction
nan nan nan nan nan nan nan nan nan nan nan nan nan nan nan nan nan nan nan nan nan nan nan nan nan nan nan nan nan nan nan nan nan nan nan nan nan nan 221 223 224 227 224 223 222 222 216 211 217 220 221 220 226 236 233 221 216 220 226 235 251 263 276 282 292 299 300 297 292 287 286 286 286 287 287 286 287 289 292 294 298 302 306 309 310 313
nan nan nan nan nan nan nan nan nan nan nan nan nan nan nan nan nan nan nan nan nan nan nan nan nan nan nan nan nan nan nan nan nan nan nan nan nan nan nan 221 223 224 217 215 217 218 216 216 220 223 225 226 231 235 241 233 227 225 232 248 266 275 280 286 298 301 297 291 289 284 281 280 283 284 285 284 285 288 289 294 297 300 304 307 309 311
nan nan nan nan nan nan nan nan nan nan nan nan nan nan nan nan nan nan nan nan nan nan nan nan nan nan nan nan nan nan nan nan nan nan nan nan nan nan nan nan 220 221 216 213 215 220 221 222 225 226 228 230 233 236 237 232 232 234 242 253 267 272 273 282 295 298 295 289 284 281 277 283 280 280 281 283 285 288 290 293 295 299 302 304 306 309
nan nan nan nan nan nan nan nan nan nan nan nan nan nan nan nan nan nan nan nan nan nan nan nan nan nan nan nan nan nan nan nan nan nan nan nan nan nan nan nan nan 221 220 216 216 223 226 227 229 229 231 233 233 236 235 237 242 240 245 255 264 266 268 280 293 295 291 289 283 281 281 285 282 279 280 281 280 281 282 288 293 297 300 301 305 305
nan nan nan nan nan nan nan nan nan nan nan nan nan nan nan nan nan nan nan nan nan nan nan nan nan nan nan nan nan nan nan nan nan nan nan nan nan nan nan nan nan nan nan 219 216 222 229 231 232 235 237 238 240 242 245 246 247 243 256 261 265 265 272 282 292 293 286 284 282 283 277 273 272 266 275 277 278 280 283 285 289 299 296 299 301 299
nan nan nan nan nan nan nan nan nan nan nan nan nan nan nan nan nan nan nan nan nan nan nan nan nan nan nan nan nan nan nan nan nan nan nan nan nan nan nan nan nan nan nan nan 221 224 233 237 236 234 239 243 242 246 251 256 257 253 257 264 268 269 275 284 292 290 285 289 291 288 284 281 279 279 279 282 283 285 289 293 288 289 292 293 294 295
nan nan nan nan nan nan nan nan nan nan nan nan nan nan nan nan nan nan nan nan nan nan nan nan nan nan nan nan nan nan nan nan nan nan nan nan nan nan nan nan nan nan nan nan nan nan 224 230 233 233 239 247 250 252 255 257 259 262 265 269 273 276 278 284 292 290 286 290 290 289 287 281 281 282 271 274 282 289 289 289 293 292 286 290 293 294
nan nan nan nan nan nan nan nan nan nan nan nan nan nan nan nan nan nan nan nan nan nan nan nan nan nan nan nan nan nan nan nan nan nan nan nan nan nan nan nan nan nan nan nan nan nan 226 230 236 237 238 245 253 255 255 258 259 266 272 274 277 277 281 288 291 288 287 289 285 283 281 278 280 281 280 282 281 282 284 289 291 285 286 287 289 293
nan nan nan nan nan nan nan nan nan nan nan nan nan nan nan nan nan nan nan nan nan nan nan nan nan nan nan nan nan nan nan nan nan nan nan nan nan nan nan nan nan nan nan nan nan nan nan 232 234 235 238 243 249 252 256 260 263 266 268 272 276 280 283 290 293 286 283 282 282 282 278 276 273 275 276 277 278 282 285 288 280 283 283 283 283 289
nan nan nan nan nan nan nan nan nan nan nan nan nan nan nan nan nan nan nan nan nan nan nan nan nan nan nan nan nan nan nan nan nan nan nan nan nan nan nan nan nan nan nan nan nan nan nan 233 235 238 241 242 245 249 254 255 255 259 265 272 279 282 284 288 288 282 280 278 277 279 276 278 274 271 269 273 277 281 285 287 284 282 282 282 282 286
nan nan nan nan nan nan nan nan nan nan nan nan nan nan nan nan nan nan nan nan nan nan nan nan nan nan nan nan nan nan nan nan nan nan nan nan nan nan nan nan nan nan nan nan nan nan nan 234 237 238 239 241 241 244 249 253 258 262 267 272 278 282 281 283 282 279 279 274 275 276 276 278 278 276 276 273 274 277 280 284 281 281 280 279 284 287
nan nan nan nan nan nan nan nan nan nan nan nan nan nan nan nan nan nan nan nan nan nan nan nan nan nan nan nan nan nan nan nan nan nan nan nan nan nan nan nan nan nan nan nan nan nan nan 233 234 236 238 238 241 244 250 253 258 264 268 272 277 277 281 278 273 275 274 271 272 270 272 277 276 279 277 279 281 285 288 283 282 277 275 279 284 289
nan nan nan nan nan nan nan nan nan nan nan nan nan nan nan nan nan nan nan nan nan nan nan nan nan nan nan nan nan nan nan nan nan nan nan nan nan nan nan nan nan nan nan nan nan nan nan 236 240 242 242 244 247 249 251 257 262 266 269 275 279 279 277 272 269 271 269 266 268 269 269 269 269 275 278 278 280 284 285 282 279 280 282 286 291 297
nan nan nan nan nan nan nan nan nan nan nan nan nan nan nan nan nan nan nan nan nan nan nan nan nan nan nan nan nan nan nan nan nan nan nan nan nan nan nan nan nan nan nan nan nan nan 235 239 241 244 247 248 250 252 254 257 261 265 270 274 276 275 270 264 264 265 264 265 264 264 267 267 267 271 275 275 278 282 282 282 283 286 290 297 303 304
nan nan nan nan nan nan nan nan nan nan nan nan nan nan nan nan nan nan nan nan nan nan nan nan nan nan nan nan nan nan nan nan nan nan nan nan nan nan nan nan nan nan nan nan nan nan 234 238 242 245 247 249 252 255 256 257 261 265 268 270 271 268 264 264 265 262 263 261 260 259 262 264 264 269 271 271 274 282 281 277 280 283 288 296 300 306
nan nan nan nan nan nan nan nan nan nan nan nan nan nan nan nan nan nan nan nan nan nan nan nan nan nan nan nan nan nan nan nan nan nan nan nan nan nan nan nan nan nan nan nan nan nan nan 238 242 244 247 250 252 256 258 260 261 263 265 267 270 271 267 261 259 258 260 258 256 256 261 262 263 263 266 267 269 275 279 281 284 289 293 296 297 298
nan nan nan nan nan nan nan nan nan nan nan nan nan nan nan nan nan nan nan nan nan nan nan nan nan nan nan nan nan nan nan nan nan nan nan nan nan nan nan nan nan nan nan nan nan nan nan 235 239 244 248 250 252 255 258 260 261 263 263 262 262 259 252 253 257 258 256 257 256 255 257 258 261 265 269 269 271 276 275 278 281 287 290 289 295 300
nan nan nan nan nan nan nan nan nan nan nan nan nan nan nan nan nan nan nan nan nan nan nan nan nan nan nan nan nan nan nan nan nan nan nan nan nan nan nan nan nan nan nan nan nan nan nan 237 240 242 244 248 252 256 258 260 257 255 254 257 259 255 253 251 253 255 255 256 254 252 254 256 260 263 264 266 271 272 273 273 276 279 288 296 296 297
nan nan nan nan nan nan nan nan nan nan nan nan nan nan nan nan nan nan nan nan nan nan nan nan nan nan nan nan nan nan nan nan nan nan nan nan nan nan nan nan nan nan nan nan nan nan nan 227 232 237 241 244 248 253 256 256 252 245 242 242 245 248 248 249 246 247 247 249 248 249 252 255 253 255 260 263 267 270 273 278 281 288 289 288 295 296
nan nan nan nan nan nan nan nan nan nan nan nan nan nan nan nan nan nan nan nan nan nan nan nan nan nan nan nan nan nan nan nan nan nan nan nan nan nan nan nan nan nan nan nan nan nan nan 231 233 236 239 241 244 246 244 243 239 238 238 237 234 232 232 239 245 249 251 248 247 248 249 251 253 256 261 264 268 269 273 278 282 284 288 293 292 293
nan nan nan nan nan nan nan nan nan nan nan nan nan nan nan nan nan nan nan nan nan nan nan nan nan nan nan nan nan nan nan nan nan nan nan nan nan nan nan nan nan nan nan nan nan nan nan 234 235 235 236 239 241 241 241 239 240 238 235 234 235 238 240 243 245 247 247 246 246 251 253 252 252 255 258 263 266 270 272 276 279 281 284 287 291 290
nan nan nan nan nan nan nan nan nan nan nan nan nan nan nan nan nan nan nan nan nan nan nan nan nan nan nan nan nan nan nan nan nan nan nan nan nan nan nan nan nan nan nan nan nan nan 228 232 236 237 235 231 233 234 236 234 231 231 232 232 234 235 237 242 244 246 246 244 246 250 248 250 251 255 258 263 263 266 270 274 277 281 285 288 288 288
nan nan nan nan nan nan nan nan nan nan nan nan nan nan nan nan nan nan nan nan nan nan nan nan nan nan nan nan nan nan nan nan nan nan nan nan nan nan nan nan nan nan nan nan nan nan 224 229 235 240 243 240 238 236 236 233 232 233 234 234 234 238 240 243 245 243 242 243 245 248 247 250 253 256 262 263 262 266 269 271 274 281 285 285 285 284
nan nan nan nan nan nan nan nan nan nan nan nan nan nan nan nan nan nan nan nan nan nan nan nan nan nan nan nan nan nan nan nan nan nan nan nan nan nan nan nan nan nan nan nan nan 216 220 224 229 233 235 235 232 231 232 231 231 232 232 233 235 239 242 242 242 241 241 242 245 248 250 251 254 260 262 262 261 266 267 270 274 279 281 283 283 284
nan nan nan nan nan nan nan nan nan nan nan nan nan nan nan nan nan nan nan nan nan nan nan nan nan nan nan nan nan nan nan nan nan nan nan nan nan nan nan nan nan nan nan nan nan 216 220 222 228 232 236 238 235 231 229 229 230 232 234 235 237 238 240 240 238 238 238 242 246 248 251 254 256 259 260 260 260 264 266 270 274 278 281 282 282 284
nan nan nan nan nan nan nan nan nan nan nan nan nan nan nan nan nan nan nan nan nan nan nan nan nan nan nan nan nan nan nan nan nan nan nan nan nan nan nan nan nan nan nan nan 213 218 224 225 225 228 231 232 232 231 230 229 230 232 234 236 237 239 240 240 237 238 240 242 247 248 253 256 255 257 259 259 260 264 266 270 275 278 279 282 285 286
nan nan nan nan nan nan nan nan nan nan nan nan nan nan nan nan nan nan nan nan nan nan nan nan nan nan nan nan nan nan nan nan nan nan nan nan nan nan nan nan nan nan nan nan 217 218 219 218 221 225 229 230 230 229 228 229 230 232 235 237 237 238 238 238 238 239 241 243 247 249 251 253 253 251 252 255 258 260 265 272 276 278 280 282 285 287
nan nan nan nan nan nan nan nan nan nan nan nan nan nan nan nan nan nan nan nan nan nan nan nan nan nan nan nan nan 158 160 163 167 nan nan nan nan nan nan nan nan nan nan 210 213 219 219 217 217 221 225 227 226 226 227 227 230 234 237 240 239 240 238 236 240 242 243 244 246 250 251 249 249 247 249 251 254 259 266 271 275 275 276 280 284 285
nan nan nan nan nan nan nan nan nan nan nan nan nan nan nan nan nan nan nan nan nan nan nan nan nan nan nan nan 149 148 151 153 154 156 158 164 nan nan nan nan nan nan nan 212 213 215 213 212 215 221 225 227 229 230 229 229 230 230 231 232 234 237 238 238 241 242 243 244 247 248 248 245 244 242 246 252 256 260 266 269 272 273 276 279 280 277
nan nan nan nan nan nan nan nan nan nan nan nan nan nan nan nan nan nan nan nan nan nan nan nan nan nan 140 142 141 143 146 148 150 156 158 nan nan nan nan nan nan nan 211 210 211 210 208 211 217 223 227 229 233 234 232 232 234 235 237 238 237 236 234 237 239 241 242 244 244 245 244 244 243 243 246 252 257 261 266 268 269 272 276 278 277 275
nan nan nan nan nan nan nan nan nan nan nan nan nan nan nan nan nan nan nan nan nan nan nan nan nan nan 142 142 145 143 148 153 156 157 156 156 nan nan nan nan nan nan 202 201 203 206 206 210 215 220 226 229 233 237 236 236 236 236 236 235 235 235 236 238 240 240 242 243 243 244 241 241 243 245 249 253 257 260 265 268 268 272 277 276 274 274
nan nan nan nan nan nan nan nan nan nan nan nan nan nan nan nan nan nan nan nan nan nan nan nan nan nan nan 147 153 151 150 155 157 158 159 nan nan nan nan nan nan nan 192 194 199 204 207 210 217 222 225 228 231 235 235 235 234 235 235 234 233 232 233 235 238 240 240 240 241 241 241 240 244 246 249 253 258 261 263 266 270 275 277 276 274 270
nan nan nan nan nan nan nan nan nan nan nan nan nan nan nan nan nan nan nan nan nan nan nan nan nan nan nan nan nan 150 153 158 158 157 161 nan nan nan nan nan nan nan 189 196 201 206 210 214 219 224 226 229 232 233 235 238 238 238 236 235 232 230 233 234 236 238 237 237 240 239 240 242 246 247 250 254 257 257 260 265 271 275 276 278 274 271
nan nan nan nan nan nan nan nan nan nan nan nan nan nan nan nan nan nan nan nan nan nan nan nan nan nan nan 153 153 151 152 155 154 154 157 156 160 nan nan 162 167 174 184 192 197 204 208 209 210 216 225 232 236 237 237 238 238 235 233 232 230 233 233 235 233 235 236 234 237 240 241 245 246 247 249 251 254 256 261 265 272 276 276 272 270 272
nan nan nan nan nan nan nan nan nan nan nan nan nan nan nan nan nan nan nan nan nan nan nan nan nan 142 nan 156 158 153 149 151 154 152 154 159 164 166 167 171 175 182 186 191 195 196 201 207 212 216 219 220 225 228 230 228 226 225 225 225 227 227 231 233 232 231 234 236 237 239 243 247 246 247 248 250 253 256 264 270 270 273 273 273 274 272
nan nan nan nan nan nan nan nan nan nan nan 154 166 nan nan nan nan nan nan nan nan nan nan nan nan nan 156 159 159 155 153 155 154 156 160 165 173 178 177 179 182 195 202 198 204 205 211 213 217 222 224 226 231 231 232 232 231 232 229 227 226 227 230 233 233 230 233 237 240 242 245 247 246 246 249 251 253 255 262 268 275 277 273 273 271 268
nan nan nan nan nan nan nan nan nan nan nan 173 165 164 168 159 149 166 nan nan nan 133 nan nan nan 150 150 161 162 161 161 163 169 171 174 181 181 183 189 192 191 186 192 200 206 209 214 219 222 221 223 228 233 235 234 232 232 231 229 227 226 228 230 233 234 233 235 238 240 244 246 247 247 247 248 251 255 258 261 266 270 272 270 267 267 268
nan nan nan nan nan nan nan nan nan nan nan nan nan 154 157 nan 169 178 187 nan nan nan 132 151 nan 165 159 166 169 166 172 179 177 171 177 180 186 188 196 206 202 199 202 207 207 206 207 210 214 218 226 230 232 233 233 234 235 235 231 229 229 232 232 234 232 231 235 239 242 244 246 246 248 249 249 251 255 259 261 266 268 271 272 275 272 270
nan nan nan nan nan nan nan nan nan nan nan nan nan 140 145 155 171 nan nan nan nan 134 119 146 nan 168 172 166 162 169 184 182 175 174 181 183 186 196 197 204 210 205 208 208 209 210 212 213 218 222 224 226 230 230 232 234 236 235 232 230 232 233 234 233 231 233 237 239 242 244 243 246 249 252 252 253 257 260 264 268 271 270 268 267 269 272
nan nan nan nan nan nan nan nan nan nan nan nan nan nan 137 nan nan nan nan nan nan 159 157 161 nan 166 169 167 164 167 180 177 170 175 180 180 184 194 200 196 204 217 212 212 211 212 213 217 223 223 224 228 229 231 233 233 234 233 231 230 232 234 235 232 231 232 234 236 239 239 240 243 249 249 251 252 253 256 262 263 265 267 265 266 267 269
nan nan nan nan nan nan nan nan nan nan nan 149 145 157 nan nan nan nan nan nan nan 170 170 174 169 166 168 170 178 183 186 183 173 171 173 179 190 191 192 195 198 203 221 220 216 213 213 214 218 220 223 224 228 232 233 233 235 235 233 232 233 234 230 229 229 232 236 235 235 236 239 241 245 246 246 254 258 255 256 262 267 264 263 264 263 264
nan nan nan nan nan nan nan nan nan nan nan 150 173 nan nan nan nan nan nan 163 163 164 170 179 174 165 162 163 174 184 188 185 179 183 189 188 191 188 189 195 204 209 208 218 226 220 214 214 216 219 218 218 225 229 232 236 238 236 235 234 232 228 228 229 230 231 233 234 233 234 237 241 242 245 246 248 251 255 259 258 260 262 264 264 266 270
nan nan nan nan nan nan nan nan nan nan nan nan nan nan nan nan nan nan nan 165 165 nan 167 175 185 161 159 166 173 171 176 185 188 192 193 193 193 193 191 199 209 217 229 228 224 228 229 222 220 219 218 219 224 227 230 235 236 236 235 233 230 229 230 229 228 229 232 232 234 235 238 240 245 244 243 249 253 256 259 259 257 256 260 265 267 270
nan nan nan nan nan nan nan nan nan nan nan nan nan 204 nan 145 165 159 nan 163 165 155 nan nan 173 160 158 172 180 175 177 183 190 196 195 194 196 197 198 206 217 221 221 227 236 233 233 235 236 234 233 231 230 232 234 240 240 238 238 236 232 233 233 233 232 231 232 233 234 235 238 241 244 245 246 251 250 250 255 255 256 259 261 265 269 270
nan nan nan nan nan nan nan nan nan nan nan nan nan nan 118 143 167 159 129 144 154 137 134 143 148 155 160 174 187 188 186 186 187 193 200 199 199 201 206 208 220 229 230 230 232 230 226 225 224 227 227 225 235 241 247 252 258 257 255 244 242 240 237 235 234 233 232 234 235 236 238 239 241 242 243 246 251 253 252 255 258 259 259 264 267 272
nan nan nan nan nan nan nan nan nan nan nan nan nan 187 159 165 167 154 132 135 117 108 131 136 137 143 158 178 195 198 197 192 192 193 199 205 210 209 212 218 217 219 217 219 221 223 224 226 228 232 237 237 235 232 230 228 238 253 248 245 246 244 240 236 234 232 233 232 233 236 239 240 237 240 244 245 244 251 259 263 262 263 265 266 269 273
nan nan nan nan nan nan nan nan nan nan nan 200 nan 200 228 226 202 171 152 131 114 110 123 129 134 141 157 177 200 207 201 195 196 194 198 204 208 213 217 221 219 219 221 220 217 217 221 224 223 225 233 239 238 240 242 240 234 234 234 236 236 237 238 236 235 233 233 233 233 235 238 240 238 237 239 244 242 244 251 258 262 265 269 270 273 274
nan nan nan nan nan nan nan nan nan nan nan nan nan nan 218 220 217 205 225 212 169 108 103 121 140 148 161 174 192 209 200 197 199 198 201 204 207 209 213 217 224 222 217 220 223 225 226 222 221 222 225 232 235 239 237 233 234 237 236 235 237 237 238 238 237 237 237 237 237 238 234 236 245 249 245 244 249 252 254 256 262 270 274 276 277 278
nan nan nan nan nan nan nan nan nan nan nan nan nan 211 215 nan 229 232 237 246 241 233 189 144 157 160 163 169 174 183 206 209 209 209 209 209 210 211 211 211 215 221 222 221 220 220 223 223 224 223 225 227 232 236 232 231 234 238 239 238 237 236 236 237 237 236 238 235 230 231 234 236 239 242 245 245 244 241 246 261 272 274 274 273 278 283
nan nan nan nan nan nan nan nan nan nan nan nan nan nan nan nan 225 239 240 234 237 240 241 234 204 186 182 178 187 182 198 222 225 223 225 223 221 212 205 208 210 216 217 216 221 228 228 226 226 222 222 228 238 239 235 235 235 236 237 238 234 233 233 235 236 238 239 236 231 231 234 238 239 242 246 249 252 255 252 243 247 254 271 272 270 270
nan nan nan nan nan nan nan nan nan nan nan nan nan nan nan nan nan nan 238 236 228 237 242 239 223 211 203 201 201 206 208 221 227 229 228 224 220 216 208 202 205 212 217 220 222 223 227 227 225 231 242 243 239 240 240 238 239 239 238 237 234 232 234 235 233 233 235 233 230 232 233 237 240 243 247 252 258 262 265 262 249 244 256 274 275 277